VLLN

Luang Namtha Airport

Airport
ICAO code
VLLN
IATA Code
LXG
Summary
ICAO Region
APAC
ICAO Territory
Location

Louang Namtha, Loungnamtha

Serving
Luang Namtha
Elevation
1968 ft
Coordinates
20° 57' 38" N , 101° 24' 9" E
KCC
Metar
VLLN 230500Z 18002KT 9999 SCT020 BKN100 29/25 Q1006 NOSIGIG

Louangnamtha Airport is an airport in Laos, 6 km south of the city of Luang Namtha.

Climatology

Tropical savannah climate (Köppen climate classification Aw)

Airport map

Aerial View

SKYbrary Partners:

Safety knowledge contributed by: